Location: Byszew
(52.1813°N, 19.2693°E)
Time: 02:00:51
(UTC+00:00)

Cosmos 1666 Rocket - Pass Details

Date: 03 March 2021
Orbit: 605 x 632 km, 82.5° (Epoch: 11 April)

Event Time Altitude Azimuth Distance (km) Brightness Sun altitude
Rises 17:21:41 0° 192° (SSW) 2,859 7.1 -9.3°
Reaches altitude 10° 17:23:54 10° 193° (SSW) 1,957 6.3 -9.6°
Maximum altitude 17:28:14 81° 280° (W) 621 3.7 -10.3°
Drops below altitude 10° 17:32:35 10° 9° (N) 1,967 6.1 -11.0°
Sets 17:34:49 0° 11° (N) 2,875 6.9 -11.3°
